Simultaneous Nadir Overpasses (SNOs) Predictions

Prediction of SNOs near equator between AQUA and NPP Satellite Orbit:

Table of predicted SNOs near equator for the next 14.0 days since TLE Epoch: 10/15/2017
Index Date (AQUA) Time (AQUA) AQUA Lat,Lon Date (NPP) Time (NPP) NPP Lat,Lon Distance(km) Time Diff (sec)
1 10/17/2017 23:26:16 -29.98, 27.50 10/17/2017 23:16:16 -30.32, 27.16 51.04 600
2 10/18/2017 00:08:13 2.62,-158.61 10/17/2017 23:59:12 2.59,-158.86 28.03 541
3 10/18/2017 00:56:21 1.85, 10.00 10/18/2017 00:48:35 1.98, 9.49 58.34 466
4 10/18/2017 01:44:36 -6.45, 178.60 10/18/2017 01:38:05 -6.63, 177.83 87.66 391
5 10/20/2017 15:36:01 -5.68, 149.00 10/20/2017 15:26:10 -5.64, 148.92 9.27 591
6 10/20/2017 16:24:17 1.15, -42.41 10/20/2017 16:15:41 1.05, -42.75 39.10 516
7 10/20/2017 17:12:23 3.45, 126.22 10/20/2017 17:05:03 3.58, 125.61 69.22 440
8 10/20/2017 18:00:39 -7.98, -65.19 10/20/2017 17:54:34 -8.17, -66.06 98.31 365
9 10/23/2017 07:52:03 -4.09, -94.78 10/23/2017 07:42:38 -4.05, -94.95 20.08 565
10 10/23/2017 08:40:19 -0.44, 73.81 10/23/2017 08:32:09 -0.55, 73.37 50.16 490
11 10/23/2017 09:28:26 4.97,-117.57 10/23/2017 09:21:32 5.12,-118.28 80.18 414
12 10/25/2017 23:26:17 29.98,-152.50 10/25/2017 23:16:17 30.20,-152.84 40.69 600
13 10/26/2017 00:08:05 -2.58, 21.43 10/25/2017 23:59:06 -2.51, 21.15 31.31 539
14 10/26/2017 00:56:20 -2.01,-169.98 10/26/2017 00:48:36 -2.14,-170.51 61.30 464
15 10/26/2017 01:44:27 6.55, -1.35 10/26/2017 01:37:59 6.71, -2.16 91.02 388
16 10/28/2017 15:35:59 5.50, -30.97 10/28/2017 15:26:11 5.49, -31.08 12.35 588
17 10/28/2017 16:24:06 -0.95, 137.66 10/28/2017 16:15:33 -0.86, 137.29 42.49 513
18 10/28/2017 17:12:22 -3.57, -53.76 10/28/2017 17:05:04 -3.73, -54.39 72.46 438




NCC Satellite Simultaneous Nadir Overpasses (SNOs) Prediction Service
